Pilot information for Libenge Airport

[ general | frequencies | runways | weather | notam | navaids | links ]

Caution: This page displays community-maintained data: information may be missing, incorrect, or out of date. Please confirm with an official source before making travel plans.

General information for Libenge Airport

Airport codes: LIE FZFA
Type: local airport(light traffic)
Scheduled airline service: no
Serves: Libenge, Equateur, Congo (Kinshasa)
Latitude: 3.633000 | 3 37.979994 N | N03 37 58
Longitude: 18.632999 | 18 37.979965 E | E018 37 58
Field elevation: 1,125 ft/343 m MSL

Radio communication frequencies for Libenge Airport

No communications frequencies known for Libenge Airport.

Members can add and update frequencies.

Runways at Libenge Airport

No runway information available for Libenge Airport.

Members can add and update runway information.

Aviation weather for Libenge Airport

Current conditions (METAR) for Libenge Airport

Closest report is Bangui M'Poko International Airport, 46.5 nm (86.1 km) N. Retrieved 2015/07/29 14:00:

FEFF 291400Z 22009KT 170V280 9999 FEW023 28/20 Q1013 NOSIG

Forecast (TAF) for Libenge Airport

Closest forecast is Bangui M'Poko International Airport, 46.5 nm (86.1 km) N. Retrieved 2015/08/03 06:00:

TAF FCBB 030500Z 0306/0412 26006KT 8000 SCT020= TAF FEFF 030500Z 0306/0412 VRB03KT 9999 SCT010 
      BECMG 0310/0312 BKN026 FEW033CB 
      TEMPO 0313/0317 TS 
     FM032100 VRB02KT CAVOK PROB30 
      TEMPO 0403/0407 3000 BR BKN003

Notices to Airmen (NOTAM) for Libenge Airport

Please confirm all NOTAMs at the original source! These are for information only, and may be wrong, out of date, or incomplete.

We have no current NOTAMs for Libenge Airport. Please check with an official source to confirm.